TimeEST,TemperatureF,Dew PointF,Humidity,Sea Level PressureIn,VisibilityMPH,Wind Direction,Wind SpeedMPH,Gust SpeedMPH,PrecipitationIn,Events,Conditions,WindDirDegrees,DateUTC
12:15 AM,23.0,15.8,74,30.33,10.0,ESE,5.8,-,N/A,,Clear,120,2013-02-02 05:15:00
12:35 AM,23.0,15.8,74,30.33,10.0,ESE,5.8,-,N/A,,Clear,120,2013-02-02 05:35:00
12:55 AM,23.0,15.8,74,30.32,10.0,SE,4.6,-,N/A,,Clear,130,2013-02-02 05:55:00
1:35 AM,23.0,15.8,74,30.31,10.0,ESE,5.8,-,N/A,,Clear,120,2013-02-02 06:35:00
1:55 AM,23.0,15.8,74,30.32,10.0,SE,3.5,-,N/A,,Clear,140,2013-02-02 06:55:00
2:15 AM,23.0,15.8,74,30.32,10.0,SE,3.5,-,N/A,,Clear,140,2013-02-02 07:15:00
2:35 AM,21.2,15.8,80,30.31,10.0,ESE,3.5,-,N/A,,Clear,110,2013-02-02 07:35:00
2:55 AM,21.2,15.8,80,30.31,10.0,ESE,5.8,-,N/A,,Clear,110,2013-02-02 07:55:00
3:15 AM,21.2,15.8,80,30.30,10.0,ESE,5.8,-,N/A,,Clear,120,2013-02-02 08:15:00
3:35 AM,21.2,15.8,80,30.30,10.0,ESE,3.5,-,N/A,,Clear,120,2013-02-02 08:35:00
3:55 AM,21.2,15.8,80,30.29,10.0,ESE,4.6,-,N/A,,Clear,120,2013-02-02 08:55:00
4:15 AM,21.2,15.8,80,30.29,10.0,ESE,6.9,-,N/A,,Clear,110,2013-02-02 09:15:00
4:35 AM,21.2,15.8,80,30.28,10.0,ESE,5.8,-,N/A,,Clear,120,2013-02-02 09:35:00
4:55 AM,21.2,15.8,80,30.28,10.0,SE,3.5,-,N/A,,Clear,130,2013-02-02 09:55:00
5:15 AM,23.0,15.8,74,30.28,10.0,ESE,3.5,-,N/A,,Clear,110,2013-02-02 10:15:00
5:35 AM,23.0,15.8,74,30.28,10.0,ESE,5.8,-,N/A,,Mostly Cloudy,120,2013-02-02 10:35:00
5:55 AM,23.0,15.8,74,30.28,10.0,ESE,6.9,-,N/A,,Scattered Clouds,120,2013-02-02 10:55:00
6:15 AM,24.8,17.6,74,30.27,10.0,ESE,5.8,-,N/A,,Mostly Cloudy,120,2013-02-02 11:15:00
6:35 AM,26.6,15.8,64,30.26,10.0,SE,8.1,-,N/A,,Overcast,140,2013-02-02 11:35:00
7:15 AM,26.6,15.8,64,30.25,10.0,SE,6.9,-,N/A,,Mostly Cloudy,130,2013-02-02 12:15:00
7:35 AM,24.8,15.8,69,30.24,10.0,ESE,12.7,-,N/A,,Mostly Cloudy,120,2013-02-02 12:35:00
7:55 AM,26.6,15.8,64,30.25,10.0,SE,12.7,-,N/A,,Overcast,130,2013-02-02 12:55:00
8:15 AM,28.4,15.8,59,30.28,10.0,NE,6.9,-,N/A,,Overcast,50,2013-02-02 13:15:00
8:35 AM,28.4,15.8,59,30.28,10.0,East,6.9,-,N/A,,Overcast,90,2013-02-02 13:35:00
8:55 AM,28.4,15.8,59,30.33,10.0,WNW,3.5,-,N/A,,Overcast,300,2013-02-02 13:55:00
9:15 AM,30.2,17.6,60,30.31,8.0,SSE,3.5,-,N/A,,Mostly Cloudy,160,2013-02-02 14:15:00
9:35 AM,28.4,17.6,64,30.33,3.0,Variable,4.6,-,N/A,,Overcast,0,2013-02-02 14:35:00
9:55 AM,24.8,24.8,100,30.29,0.2,SSE,9.2,-,N/A,,Overcast,160,2013-02-02 14:55:00
10:15 AM,26.6,24.8,93,30.27,7.0,ESE,8.1,-,N/A,,Mostly Cloudy,120,2013-02-02 15:15:00
10:35 AM,30.2,26.6,86,30.25,0.5,SSE,9.2,-,N/A,,Unknown,160,2013-02-02 15:35:00
10:55 AM,33.8,26.6,75,30.24,0.2,SE,11.5,-,N/A,,Unknown,140,2013-02-02 15:55:00
11:15 AM,30.2,26.6,86,30.22,10.0,SSE,11.5,-,N/A,,Mostly Cloudy,150,2013-02-02 16:15:00
11:35 AM,32.0,26.6,80,30.22,10.0,SE,10.4,-,N/A,,Overcast,140,2013-02-02 16:35:00
11:55 AM,33.8,26.6,75,30.21,10.0,SE,8.1,-,N/A,,Mostly Cloudy,140,2013-02-02 16:55:00
12:15 PM,33.8,28.4,81,30.20,10.0,SSE,8.1,-,N/A,,Mostly Cloudy,150,2013-02-02 17:15:00
12:35 PM,35.6,28.4,75,30.19,10.0,SSE,5.8,-,N/A,,Mostly Cloudy,150,2013-02-02 17:35:00
12:55 PM,35.6,30.2,81,30.18,10.0,SE,6.9,-,N/A,,Overcast,130,2013-02-02 17:55:00
1:15 PM,37.4,28.4,70,30.16,10.0,South,9.2,-,N/A,,Overcast,190,2013-02-02 18:15:00
1:35 PM,37.4,28.4,70,30.15,10.0,SSE,5.8,-,N/A,,Overcast,150,2013-02-02 18:35:00
1:55 PM,35.6,28.4,75,30.14,10.0,Variable,4.6,-,N/A,,Overcast,0,2013-02-02 18:55:00
2:15 PM,35.6,28.4,75,30.13,10.0,Variable,6.9,-,N/A,,Overcast,0,2013-02-02 19:15:00
2:35 PM,39.2,28.4,65,30.12,10.0,SSW,8.1,-,N/A,,Overcast,200,2013-02-02 19:35:00
2:55 PM,39.2,28.4,65,30.11,10.0,South,8.1,-,N/A,,Overcast,190,2013-02-02 19:55:00
3:15 PM,39.2,28.4,65,30.12,10.0,SSW,6.9,-,N/A,,Overcast,210,2013-02-02 20:15:00
3:35 PM,39.2,30.2,70,30.12,10.0,WSW,8.1,-,N/A,,Overcast,250,2013-02-02 20:35:00
3:55 PM,39.2,30.2,70,30.12,10.0,WSW,10.4,-,N/A,,Overcast,250,2013-02-02 20:55:00
4:15 PM,39.2,30.2,70,30.12,10.0,WSW,8.1,-,N/A,,Overcast,250,2013-02-02 21:15:00
4:35 PM,39.2,30.2,70,30.11,10.0,WSW,9.2,-,N/A,,Scattered Clouds,240,2013-02-02 21:35:00
4:55 PM,39.2,28.4,65,30.11,10.0,WSW,8.1,-,N/A,,Clear,250,2013-02-02 21:55:00
5:15 PM,39.2,30.2,70,30.09,10.0,SW,6.9,-,N/A,,Clear,230,2013-02-02 22:15:00
5:35 PM,39.2,30.2,70,30.09,10.0,SW,5.8,-,N/A,,Clear,220,2013-02-02 22:35:00
5:55 PM,39.2,30.2,70,30.10,10.0,SSW,6.9,-,N/A,,Mostly Cloudy,210,2013-02-02 22:55:00
6:15 PM,37.4,28.4,70,30.10,10.0,South,3.5,-,N/A,,Scattered Clouds,190,2013-02-02 23:15:00
6:35 PM,35.6,28.4,75,30.11,10.0,Calm,Calm,-,N/A,,Scattered Clouds,0,2013-02-02 23:35:00
6:55 PM,35.6,30.2,81,30.11,10.0,WSW,4.6,-,N/A,,Partly Cloudy,240,2013-02-02 23:55:00
7:15 PM,35.6,30.2,81,30.10,10.0,SW,3.5,-,N/A,,Clear,230,2013-02-03 00:15:00
7:35 PM,35.6,32.0,87,30.11,10.0,SW,3.5,-,N/A,,Clear,220,2013-02-03 00:35:00
7:55 PM,35.6,33.8,93,30.12,10.0,SW,4.6,-,N/A,,Clear,230,2013-02-03 00:55:00
8:15 PM,35.6,33.8,93,30.14,10.0,West,3.5,-,N/A,,Partly Cloudy,260,2013-02-03 01:15:00
8:35 PM,35.6,33.8,93,30.14,10.0,Variable,3.5,-,N/A,,Mostly Cloudy,0,2013-02-03 01:35:00
8:55 PM,37.4,35.6,93,30.14,10.0,WSW,6.9,-,N/A,,Overcast,250,2013-02-03 01:55:00
9:15 PM,37.4,35.6,93,30.15,10.0,WSW,5.8,-,N/A,,Overcast,250,2013-02-03 02:15:00
9:35 PM,35.6,35.6,100,30.15,10.0,West,5.8,-,N/A,,Mostly Cloudy,260,2013-02-03 02:35:00
9:55 PM,35.6,35.6,100,30.16,10.0,West,6.9,-,N/A,,Clear,270,2013-02-03 02:55:00
10:15 PM,35.6,35.6,100,30.16,10.0,West,6.9,-,N/A,,Clear,280,2013-02-03 03:15:00
10:35 PM,35.6,33.8,93,30.15,10.0,West,3.5,-,N/A,,Clear,270,2013-02-03 03:35:00
10:55 PM,35.6,33.8,93,30.15,10.0,West,3.5,-,N/A,,Clear,270,2013-02-03 03:55:00
11:15 PM,33.8,33.8,100,30.15,10.0,West,3.5,-,N/A,,Scattered Clouds,280,2013-02-03 04:15:00
11:35 PM,33.8,33.8,100,30.15,10.0,West,3.5,-,N/A,,Overcast,280,2013-02-03 04:35:00
11:55 PM,35.6,33.8,93,30.15,10.0,West,5.8,-,N/A,,Overcast,260,2013-02-03 04:55:00